SL-16 DEB, 22361

Orbit data source: Space-Track

SL-16 DEB, 22361 is space debris in LEO originally from a launch on Fri, 25 Dec 1992 UTC launched from the Tyuratam Missile And Space Complex (TTMTR). Debris objects in space refer to the collection of defunct objects orbiting the Earth. Examples of debris include non-operational satellites, rocket bodies, and fragments generated from explosions, collisions, or faulty payload assembly.

Loading next visibility...
Identifier
22361, 1992-093BA
Orbit
LEO
Country
Flag of CISCIS
Related business
Manufacturer
Unknown
Mission
Spacecraft
Bus & Motor
Unknown
Mass
Unknown
Launch date (UTC)
1992-12-25 (33 years ago)
Launch vehicle
Unknown
Launch site
Tyuratam Missile And Space Complex (TTMTR)
Object type
Payload
Rocket body
Debris
Shape & HBR
Unknown shape, 0.3 m
Radar Cross Section
Medium (>0.1 m² and <1 m²)

Expand to show TLE details & history
Last TLE update: 13 hours ago

TLE from 13 hours ago
0 SL-16 DEB
1 22361U 92093BA  25303.29254872  .00000512  00000-0  46064-3 0  9990
2 22361  70.7679  18.2123 0187335 262.9924 154.5651 13.81247988650986
Epoch: 2025-10-30T07:01Z
TLE epoch observation values (Epoch: 2025-10-30T07:01:16.209Z)
Latitude
53.69055°
Longitude
-97.77277°
Altitude
1,092.321 km
Speed
7.249 km/s
True Right ascension
03h 05m 35s
True Declination
53° 32' 01"
Sunlit
Object was in full shadow at epoch
Visualization orbit readout
Latitude
Unknown
Longitude
Unknown
Altitude
Unknown
Speed
Unknown
Apparent Right ascension
Unknown
Apparent Declination
Unknown
Sunlit
N/A
Visualization observer readout
Local Sidereal Time
15:24:02
Azimuth
Unknown
Elevation
Unknown
Doppler factor
Unknown
Orbital elements
Apogee altitude
1,094.864 km
Perigee altitude
820.022 km
Semi-major axis
7,335.58 km
Eccentricity
0.01873
Inclination
70.7679°
RAAN
18.2123°
Arg. of periapsis
262.9924°
True anomaly
155.46793°
Mean anomaly
154.5651°
Eccentric anomaly
155.01841°
Mean motion
3.45455 °/min
Orbital period
104.21 mins
BSTAR
0.00046064
Loading maneuver chart data...
Computing Atmospheric mass density...
Loading historical data...
Loading historical data...
Loading historical data...
Loading historical data...
Loading historical data...
Loading historical data...
Loading historical data...

Documentation

Showing up to 5 results
|